When you browse on this site, cookies collect data to enhance your experience and personalize the content and advertising you see.
Visit our Privacy Policy to learn more. By continuing to use the site, you agree to this use of cookies and data.
  • Em Portugal
  • Lista de países
  • Para 7 dias
  • Temperatura da água
  • Mapas de satélite
  • Mapa do tempo
  • Widgets de tempo
  • user-avatar
    Iniciar Sessão

    Previsão horária em Tirana

    Hoje, 22 Maio, Quarta-feira

    Tempo Temperatura Precipitação Vento Pressão Humidade
    00:00 +14°C° 0 mm 3 m/s 754 mmHg 74%
    01:00 +14°C° 0 mm 3 m/s 754 mmHg 74%
    02:00 +14°C° 0 mm 3 m/s 754 mmHg 72%
    03:00 +14°C° 0 mm 3 m/s 754 mmHg 71%
    04:00 +14°C° 0 mm 3 m/s 754 mmHg 69%
    05:00 +16°C° 0 mm 2 m/s 754 mmHg 66%
    06:00 +18°C° 0 mm 2 m/s 754 mmHg 62%
    07:00 +20°C° 0 mm 1 m/s 754 mmHg 59%
    08:00 +21°C° 0 mm 1 m/s 754 mmHg 57%
    09:00 +21°C° 0 mm 2 m/s 754 mmHg 54%
    10:00 +23°C° 0 mm 2 m/s 754 mmHg 52%
    11:00 +23°C° 0 mm 2 m/s 754 mmHg 53%
    12:00 +24°C° 0 mm 3 m/s 754 mmHg 54%
    13:00 +24°C° 0 mm 3 m/s 754 mmHg 55%
    14:00 +24°C° 0 mm 3 m/s 754 mmHg 56%
    15:00 +22°C° 0 mm 3 m/s 754 mmHg 58%
    16:00 +23°C° 0 mm 2 m/s 753 mmHg 59%
    17:00 +20°C° 0 mm 2 m/s 753 mmHg 66%
    18:00 +19°C° 0 mm 2 m/s 753 mmHg 72%
    19:00 +17°C° 0 mm 2 m/s 753 mmHg 78%
    20:00 +18°C° 0 mm 1 m/s 753 mmHg 79%
    21:00 +16°C° 0 mm 1 m/s 754 mmHg 80%
    22:00 +16°C° 0 mm 1 m/s 754 mmHg 80%
    23:00 +15°C° 0 mm 1 m/s 754 mmHg 79%

    Amanhã, 23 Maio, Quinta-feira

    Tempo Temperatura Precipitação Vento Pressão Humidade
    00:00 +15°C° 0 mm 1 m/s 754 mmHg 78%
    01:00 +15°C° 0 mm 1 m/s 754 mmHg 77%
    02:00 +15°C° 0 mm 1 m/s 754 mmHg 76%
    03:00 +15°C° 0 mm 1 m/s 753 mmHg 74%
    04:00 +14°C° 0 mm 1 m/s 753 mmHg 72%
    05:00 +16°C° 0 mm 1 m/s 753 mmHg 68%
    06:00 +19°C° 0 mm 1 m/s 753 mmHg 64%
    07:00 +20°C° 0 mm 1 m/s 753 mmHg 60%
    08:00 +20°C° 0 mm 2 m/s 753 mmHg 58%
    09:00 +21°C° 0 mm 2 m/s 753 mmHg 55%
    10:00 +23°C° 0 mm 2 m/s 753 mmHg 53%
    11:00 +24°C° 0 mm 3 m/s 753 mmHg 54%
    12:00 +23°C° 0 mm 4 m/s 752 mmHg 54%
    13:00 +23°C° 0 mm 4 m/s 752 mmHg 55%
    14:00 +22°C° 0 mm 4 m/s 752 mmHg 57%
    15:00 +22°C° 0 mm 4 m/s 751 mmHg 59%
    16:00 +21°C° 0 mm 4 m/s 751 mmHg 60%
    17:00 +20°C° 0 mm 4 m/s 751 mmHg 67%
    18:00 +18°C° 0 mm 3 m/s 751 mmHg 74%
    19:00 +16°C° 0 mm 3 m/s 751 mmHg 81%
    20:00 +16°C° 0 mm 2 m/s 752 mmHg 82%
    21:00 +15°C° 0 mm 1 m/s 752 mmHg 84%
    22:00 +15°C° 0 mm 1 m/s 752 mmHg 86%
    23:00 +14°C° 0 mm 1 m/s 752 mmHg 87%

    Depois de amanhã, 24 Maio, Sexta-feira

    Tempo Temperatura Precipitação Vento Pressão Humidade
    00:00 +14°C° 0 mm 1 m/s 752 mmHg 87%
    01:00 +14°C° 0 mm 1 m/s 751 mmHg 87%
    02:00 +14°C° 0 mm 1 m/s 751 mmHg 87%
    03:00 +14°C° 0 mm 1 m/s 751 mmHg 87%
    04:00 +14°C° 0 mm 1 m/s 751 mmHg 87%
    05:00 +15°C° 0 mm 1 m/s 751 mmHg 82%
    06:00 +17°C° 0 mm 2 m/s 751 mmHg 77%
    07:00 +18°C° 0 mm 2 m/s 751 mmHg 72%
    08:00 +19°C° 0 mm 2 m/s 751 mmHg 69%
    09:00 +20°C° 0 mm 2 m/s 751 mmHg 66%
    10:00 +23°C° 0 mm 2 m/s 751 mmHg 63%
    11:00 +22°C° 0 mm 3 m/s 751 mmHg 63%
    12:00 +22°C° 0 mm 4 m/s 750 mmHg 62%
    13:00 +23°C° 0 mm 4 m/s 750 mmHg 61%
    14:00 +23°C° 0 mm 4 m/s 750 mmHg 62%
    15:00 +22°C° 0 mm 4 m/s 750 mmHg 63%
    16:00 +22°C° 0 mm 4 m/s 750 mmHg 63%
    17:00 +20°C° 0 mm 3 m/s 750 mmHg 71%
    18:00 +19°C° 0 mm 2 m/s 750 mmHg 78%
    19:00 +18°C° 0 mm 1 m/s 751 mmHg 85%
    20:00 +18°C° 0 mm 1 m/s 751 mmHg 86%
    21:00 +16°C° 0 mm 1 m/s 752 mmHg 88%
    22:00 +15°C° 0 mm 0 m/s 752 mmHg 89%
    23:00 +15°C° 0 mm 1 m/s 752 mmHg 89%

    25 Maio, Sábado

    Tempo Temperatura Precipitação Vento Pressão Humidade
    00:00 +15°C° 0 mm 1 m/s 752 mmHg 90%
    01:00 +15°C° 0 mm 1 m/s 752 mmHg 90%
    02:00 +15°C° 0 mm 1 m/s 752 mmHg 90%
    03:00 +14°C° 0 mm 2 m/s 752 mmHg 89%
    04:00 +14°C° 0 mm 2 m/s 752 mmHg 88%
    05:00 +16°C° 0 mm 2 m/s 753 mmHg 82%
    06:00 +17°C° 0 mm 2 m/s 753 mmHg 76%
    07:00 +19°C° 0 mm 2 m/s 753 mmHg 69%
    08:00 +20°C° 0 mm 2 m/s 753 mmHg 65%
    09:00 +21°C° 0 mm 2 m/s 753 mmHg 61%
    10:00 +24°C° 0 mm 2 m/s 754 mmHg 57%
    11:00 +24°C° 0 mm 3 m/s 754 mmHg 57%
    12:00 +25°C° 0 mm 3 m/s 753 mmHg 57%
    13:00 +25°C° 0 mm 4 m/s 753 mmHg 58%
    14:00 +25°C° 0 mm 3 m/s 753 mmHg 59%
    15:00 +24°C° 0 mm 3 m/s 753 mmHg 61%
    16:00 +24°C° 0 mm 3 m/s 753 mmHg 62%
    17:00 +21°C° 0 mm 2 m/s 753 mmHg 68%
    18:00 +21°C° 0 mm 1 m/s 753 mmHg 73%
    19:00 +17°C° 0 mm 0 m/s 754 mmHg 79%
    20:00 +17°C° 0 mm 0 m/s 754 mmHg 80%
    21:00 +18°C° 0 mm 1 m/s 754 mmHg 81%
    22:00 +18°C° 0 mm 1 m/s 755 mmHg 82%
    23:00 +18°C° 0 mm 1 m/s 755 mmHg 82%

    26 Maio, Domingo

    Tempo Temperatura Precipitação Vento Pressão Humidade
    00:00 +16°C° 0 mm 1 m/s 754 mmHg 81%
    01:00 +16°C° 0 mm 1 m/s 754 mmHg 80%
    02:00 +16°C° 0 mm 1 m/s 754 mmHg 80%
    03:00 +16°C° 0 mm 1 m/s 754 mmHg 80%
    04:00 +15°C° 0 mm 2 m/s 754 mmHg 79%
    05:00 +18°C° 0 mm 1 m/s 754 mmHg 73%
    06:00 +20°C° 0 mm 1 m/s 754 mmHg 67%
    07:00 +21°C° 0 mm 1 m/s 754 mmHg 61%
    08:00 +23°C° 0 mm 1 m/s 754 mmHg 56%
    09:00 +24°C° 0 mm 1 m/s 754 mmHg 52%
    10:00 +25°C° 0 mm 1 m/s 754 mmHg 47%
    11:00 +25°C° 0 mm 2 m/s 754 mmHg 47%
    12:00 +26°C° 0 mm 2 m/s 754 mmHg 48%
    13:00 +26°C° 0 mm 3 m/s 754 mmHg 48%
    14:00 +26°C° 0 mm 3 m/s 753 mmHg 49%
    15:00 +26°C° 0 mm 3 m/s 753 mmHg 51%
    16:00 +25°C° 0 mm 2 m/s 753 mmHg 52%
    17:00 +24°C° 0 mm 2 m/s 753 mmHg 59%
    18:00 +21°C° 0 mm 2 m/s 753 mmHg 65%
    19:00 +20°C° 0 mm 1 m/s 753 mmHg 72%
    20:00 +20°C° 0 mm 1 m/s 753 mmHg 72%
    21:00 +19°C° 0 mm 1 m/s 754 mmHg 73%
    22:00 +19°C° 0 mm 1 m/s 754 mmHg 73%
    23:00 +19°C° 0 mm 1 m/s 754 mmHg 72%

    27 Maio, Segunda-feira

    Tempo Temperatura Precipitação Vento Pressão Humidade
    00:00 +19°C° 0 mm 1 m/s 754 mmHg 71%
    01:00 +18°C° 0 mm 1 m/s 754 mmHg 70%
    02:00 +18°C° 0 mm 1 m/s 754 mmHg 67%
    03:00 +18°C° 0 mm 1 m/s 754 mmHg 65%
    04:00 +17°C° 0 mm 2 m/s 753 mmHg 62%
    05:00 +20°C° 0 mm 1 m/s 754 mmHg 58%
    06:00 +21°C° 0 mm 1 m/s 754 mmHg 54%
    07:00 +23°C° 0 mm 1 m/s 754 mmHg 50%
    08:00 +25°C° 0 mm 1 m/s 753 mmHg 45%
    09:00 +27°C° 0 mm 2 m/s 753 mmHg 40%
    10:00 +29°C° 0 mm 2 m/s 753 mmHg 35%
    11:00 +29°C° 0 mm 2 m/s 753 mmHg 35%
    12:00 +30°C° 0 mm 3 m/s 753 mmHg 35%
    13:00 +30°C° 0 mm 4 m/s 752 mmHg 36%
    14:00 +30°C° 0 mm 4 m/s 752 mmHg 39%
    15:00 +29°C° 0 mm 4 m/s 752 mmHg 43%
    16:00 +28°C° 0 mm 4 m/s 752 mmHg 47%
    17:00 +26°C° 0 mm 3 m/s 752 mmHg 53%
    18:00 +25°C° 0 mm 2 m/s 752 mmHg 59%
    19:00 +23°C° 0 mm 1 m/s 752 mmHg 65%
    20:00 +23°C° 0 mm 1 m/s 752 mmHg 64%
    21:00 +23°C° 0 mm 1 m/s 752 mmHg 63%
    22:00 +23°C° 0 mm 1 m/s 753 mmHg 62%
    23:00 +23°C° 0 mm 1 m/s 752 mmHg 62%
    Mostrar mais